Weather History for Sheldon, IA

Change the Weather History Date:

Monday, October 24, 2011

  Actual Average Record
Temperature  
Mean Temperature 48 °F -  
Max Temperature 71 °F 58 °F 81 °F (1989)
Min Temperature 26 °F 36 °F 19 °F (1955)
Degree Days  
Heating Degree Days 16    
Moisture  
Dew Point 30 °F    
Average Humidity 58    
Maximum Humidity 93    
Minimum Humidity 17    
Precipitation  
Precipitation 0.00 in - - ()
Sea Level Pressure  
Sea Level Pressure 30.00 in    
Wind  
Wind Speed 2 mph (SSE)    
Max Wind Speed 10 mph    
Max Gust Speed -    
Visibility 10 miles    
Events      
Averages and records for this station are not official NWS values.
T = Trace of Precipitation, MM = Missing Value Source: NWS Daily Summary

Daily Weather History Graph

Daily Weather History Graph

Search for Another Location

Airport:

Trip Planner

Search our weather history database for the weather conditions in past years. The results will help you decide how hot, cold, wet, or windy it might be!

Date:

Astronomy

Oct. 24, 2011 Rise Set
Actual Time 7:47 AM CDT 6:26 PM CDT
Civil Twilight 7:18 AM CDT 6:55 PM CDT
Nautical Twilight 6:45 AM CDT 7:28 PM CDT
Astronomical Twilight 6:12 AM CDT 8:01 PM CDT
Moon 5:04 AM CDT (10/24) 4:54 PM CDT (10/24)
Length of Visible Light 11h 37m
Length of Day
10h 38m
Waning Crescent, 7% of the Moon is Illuminated
Oct 24
Waning Crescent
Oct 26
New
Nov 2
First Quarter
Nov 10
Full
Nov 18
Last Quarter

Hourly Weather History & Observations

Time (CDT) Temp. Windchill Dew Point Humidity Pressure Visibility Wind Dir Wind Speed Gust Speed Precip Events Conditions
12:35 AM 32.0 °F - 28.4 °F 87% 30.00 in 10.0 mi Calm Calm - N/A   Clear
12:55 AM 30.2 °F 26.7 °F 26.6 °F 86% 30.01 in 10.0 mi SW 3.5 mph - N/A   Clear
1:15 AM 30.2 °F 25.4 °F 26.6 °F 86% 30.02 in 10.0 mi SW 4.6 mph - N/A   Clear
1:35 AM 32.0 °F 27.5 °F 28.4 °F 87% 30.02 in 10.0 mi SSW 4.6 mph - N/A   Clear
1:55 AM 32.0 °F - 28.4 °F 87% 30.02 in 10.0 mi Calm Calm - N/A   Clear
2:15 AM 32.0 °F 28.7 °F 28.4 °F 87% 30.02 in 10.0 mi SW 3.5 mph - N/A   Clear
2:35 AM 30.2 °F - 28.4 °F 93% 30.02 in 10.0 mi Calm Calm - N/A   Clear
2:55 AM 28.4 °F - 24.8 °F 86% 30.02 in 10.0 mi Calm Calm - N/A   Clear
3:15 AM 30.2 °F - 26.6 °F 86% 30.03 in 10.0 mi Calm Calm - N/A   Clear
3:35 AM 30.2 °F - 26.6 °F 86% 30.02 in 10.0 mi Calm Calm - N/A   Scattered Clouds
3:55 AM 30.2 °F - 26.6 °F 86% 30.02 in 10.0 mi Calm Calm - N/A   Scattered Clouds
4:15 AM 30.2 °F - 26.6 °F 86% 30.02 in 10.0 mi Calm Calm - N/A   Clear
4:35 AM 30.2 °F 25.4 °F 26.6 °F 86% 30.03 in 10.0 mi ESE 4.6 mph - N/A   Clear
4:55 AM 30.2 °F 26.7 °F 26.6 °F 86% 30.03 in 10.0 mi SE 3.5 mph - N/A   Clear
5:15 AM 30.2 °F 26.7 °F 26.6 °F 86% 30.03 in 10.0 mi SE 3.5 mph - N/A   Clear
5:35 AM 28.4 °F - 24.8 °F 86% 30.04 in 10.0 mi Calm Calm - N/A   Clear
5:55 AM 26.6 °F - 24.8 °F 93% 30.04 in 10.0 mi Calm Calm - N/A   Clear
6:15 AM 28.4 °F - 24.8 °F 86% 30.04 in 10.0 mi Calm Calm - N/A   Clear
6:35 AM 28.4 °F - 26.6 °F 93% 30.04 in 10.0 mi Calm Calm - N/A   Clear
6:55 AM 30.2 °F 26.7 °F 26.6 °F 86% 30.05 in 10.0 mi SSE 3.5 mph - N/A   Clear
7:15 AM 28.4 °F 24.6 °F 26.6 °F 93% 30.05 in 10.0 mi SSE 3.5 mph - N/A   Clear
7:35 AM 30.2 °F - 26.6 °F 86% 30.06 in 10.0 mi Calm Calm - N/A   Clear
7:55 AM 33.8 °F 30.8 °F 30.2 °F 87% 30.05 in 10.0 mi South 3.5 mph - N/A   Clear
8:15 AM 35.6 °F 32.8 °F 32.0 °F 87% 30.06 in 10.0 mi South 3.5 mph - N/A   Clear
8:35 AM 37.4 °F 34.9 °F 35.6 °F 93% 30.06 in 10.0 mi SSW 3.5 mph - N/A   Clear
8:55 AM 42.8 °F - 37.4 °F 81% 30.06 in 10.0 mi Calm Calm - N/A   Scattered Clouds
9:15 AM 44.6 °F - 37.4 °F 76% 30.06 in 10.0 mi Calm Calm - N/A   Scattered Clouds
9:35 AM 48.2 °F - 37.4 °F 66% 30.06 in 10.0 mi SW 3.5 mph - N/A   Scattered Clouds
9:55 AM 48.2 °F - 37.4 °F 66% 30.06 in 10.0 mi WSW 3.5 mph - N/A   Clear
10:15 AM 50.0 °F - 37.4 °F 62% 30.06 in 10.0 mi Calm Calm - N/A   Clear
10:35 AM 53.6 °F - 37.4 °F 54% 30.06 in 10.0 mi WSW 3.5 mph - N/A   Clear
10:55 AM 55.4 °F - 37.4 °F 51% 30.06 in 10.0 mi Calm Calm - N/A   Clear
11:15 AM 57.2 °F - 35.6 °F 44% 30.06 in 10.0 mi Calm Calm - N/A   Clear
11:35 AM 60.8 °F - 35.6 °F 39% 30.06 in 10.0 mi Calm Calm - N/A   Clear
11:55 AM 62.6 °F - 33.8 °F 34% 30.06 in 10.0 mi Calm Calm - N/A   Clear
12:15 PM 64.4 °F - 32.0 °F 30% 30.06 in 10.0 mi WNW 3.5 mph - N/A   Clear
12:35 PM 66.2 °F - 28.4 °F 24% 30.06 in 10.0 mi WNW 3.5 mph - N/A   Clear
12:55 PM 68.0 °F - 26.6 °F 21% 30.05 in 10.0 mi West 4.6 mph - N/A   Clear
1:35 PM 69.8 °F - 24.8 °F 18% 30.03 in 10.0 mi West 5.8 mph - N/A   Clear
1:55 PM 69.8 °F - 24.8 °F 18% 30.02 in 10.0 mi NW 3.5 mph - N/A   Clear
2:15 PM 69.8 °F - 24.8 °F 18% 30.01 in 10.0 mi Calm Calm - N/A   Clear
2:35 PM 69.8 °F - 24.8 °F 18% 30.00 in 10.0 mi Calm Calm - N/A   Clear
2:55 PM 71.6 °F - 24.8 °F 17% 29.99 in 10.0 mi Calm Calm - N/A   Clear
3:15 PM 69.8 °F - 26.6 °F 20% 29.98 in 10.0 mi Calm Calm - N/A   Clear
3:35 PM 69.8 °F - 28.4 °F 21% 29.97 in 10.0 mi South 3.5 mph - N/A   Clear
3:55 PM 69.8 °F - 30.2 °F 23% 29.96 in 10.0 mi South 6.9 mph - N/A   Clear
4:15 PM 69.8 °F - 28.4 °F 21% 29.96 in 10.0 mi SSE 5.8 mph - N/A   Clear
4:35 PM 68.0 °F - 30.2 °F 24% 29.94 in 10.0 mi SE 8.1 mph - N/A   Clear
4:55 PM 68.0 °F - 30.2 °F 24% 29.93 in 10.0 mi SE 5.8 mph - N/A   Clear
5:15 PM 66.2 °F - 32.0 °F 28% 29.93 in 10.0 mi SE 5.8 mph - N/A   Clear
5:35 PM 64.4 °F - 32.0 °F 30% 29.93 in 10.0 mi SE 4.6 mph - N/A   Clear
5:55 PM 62.6 °F - 32.0 °F 32% 29.93 in 10.0 mi SE 4.6 mph - N/A   Clear
6:15 PM 60.8 °F - 33.8 °F 36% 29.93 in 10.0 mi ESE 5.8 mph - N/A   Clear
6:35 PM 59.0 °F - 33.8 °F 39% 29.92 in 10.0 mi ESE 4.6 mph - N/A   Clear
7:15 PM 55.4 °F - 33.8 °F 44% 29.92 in 10.0 mi ESE 3.5 mph - N/A   Clear
7:35 PM 53.6 °F - 35.6 °F 51% 29.92 in 10.0 mi ESE 4.6 mph - N/A   Clear
7:55 PM 55.4 °F - 33.8 °F 44% 29.91 in 10.0 mi ESE 5.8 mph - N/A   Clear
8:15 PM 55.4 °F - 33.8 °F 44% 29.90 in 10.0 mi ESE 5.8 mph - N/A   Clear
8:35 PM 57.2 °F - 33.8 °F 41% 29.90 in 10.0 mi ESE 9.2 mph - N/A   Clear
8:55 PM 57.2 °F - 33.8 °F 41% 29.89 in 10.0 mi East 9.2 mph - N/A   Clear
9:35 PM 57.2 °F - 33.8 °F 41% 29.89 in 10.0 mi ESE 9.2 mph - N/A   Clear
9:55 PM 57.2 °F - 33.8 °F 41% 29.88 in 10.0 mi East 10.4 mph - N/A   Clear
10:35 PM 55.4 °F - 33.8 °F 44% 29.86 in 5.0 mi East 13.8 mph - N/A   Haze
11:15 PM 53.6 °F - 33.8 °F 47% 29.83 in 7.0 mi East 12.7 mph - N/A   Clear
11:35 PM 53.6 °F - 32.0 °F 44% 29.82 in 10.0 mi East 13.8 mph - N/A   Clear
11:55 PM 55.4 °F - 33.8 °F 44% 29.80 in 10.0 mi East 13.8 mph - N/A   Clear